Location: Kra?nica
(53.4833°N, 14.6167°E)
Time: 20:09:25
(UTC+00:00)

H-2A R/B - Pass Details

Date: 23 May 2024
Orbit: 567 x 637 km, 98.4° (Epoch: 20 June)

Event Time Altitude Azimuth Distance (km) Brightness Sun altitude
Rises 00:29:38 0° 7° (N) 2,955 7.2 -13.3°
Reaches altitude 10° 00:32:13 10° 353° (N) 2,042 5.7 -13.1°
Maximum altitude 00:35:38 22° 302° (WNW) 1,394 4.0 -13.0°
Drops below altitude 10° 00:39:02 10° 252° (WSW) 2,024 4.3 -12.7°
Enters shadow 00:39:16 - 250° (WSW) 2,101 4.4 -12.7°
